SKW6270 KLAX-KMSO

Flight info

Callsign SKW6270
Flight time 2h 13m
Altitude 34000
Route LADYJ4 OROSZ GMN EHF/N0410F330 OAL BAM/N0406F340 BOI/N0411F350 MSO
Aircraft E75L/M-SDE3GILORVW/S

Departure

Time 2026-04-12 02:45
Airport Los Angeles International Airport (KLAX)

Arrival

Time 2026-04-12 04:58
Airport Missoula Montana Airport (KMSO)
Time Latitude Longitude Altitude Speed Heading
2026-04-12 01:41 33.94148 -118.39354 120 ft 0 kts 281°
2026-04-12 02:17 33.94149 -118.39329 120 ft 4 kts 232°
2026-04-12 02:17 33.94169 -118.39318 122 ft 1 kts 181°
2026-04-12 02:33 33.94139 -118.39320 122 ft 10 kts 182°
2026-04-12 02:33 33.94073 -118.39322 122 ft 8 kts 182°
2026-04-12 02:34 33.94033 -118.39349 122 ft 7 kts 248°
2026-04-12 02:34 33.94019 -118.39427 123 ft 12 kts 265°
2026-04-12 02:34 33.94008 -118.39541 122 ft 16 kts 263°
2026-04-12 02:34 33.93993 -118.39687 123 ft 19 kts 263°
2026-04-12 02:35 33.93976 -118.39849 123 ft 20 kts 263°
2026-04-12 02:35 33.93959 -118.40021 122 ft 21 kts 263°
2026-04-12 02:35 33.93940 -118.40201 121 ft 22 kts 262°
2026-04-12 02:35 33.93921 -118.40389 123 ft 23 kts 263°
2026-04-12 02:36 33.93901 -118.40585 123 ft 24 kts 263°
2026-04-12 02:36 33.93883 -118.40769 123 ft 18 kts 263°
2026-04-12 02:36 33.93866 -118.40926 122 ft 20 kts 263°
2026-04-12 02:36 33.93850 -118.41082 123 ft 15 kts 264°
2026-04-12 02:37 33.93873 -118.41155 123 ft 9 kts 330°
2026-04-12 02:37 33.93937 -118.41171 122 ft 11 kts 351°
2026-04-12 02:37 33.94021 -118.41185 123 ft 13 kts 353°
2026-04-12 02:37 33.94121 -118.41200 122 ft 16 kts 353°
2026-04-12 02:38 33.94237 -118.41218 121 ft 18 kts 353°
2026-04-12 02:38 33.94368 -118.41234 123 ft 20 kts 353°
2026-04-12 02:38 33.94512 -118.41258 122 ft 22 kts 352°
2026-04-12 02:38 33.94652 -118.41279 122 ft 16 kts 354°
2026-04-12 02:39 33.94738 -118.41291 123 ft 12 kts 355°
2026-04-12 02:39 33.94798 -118.41229 123 ft 13 kts 75°
2026-04-12 02:39 33.94813 -118.41108 123 ft 16 kts 83°
2026-04-12 02:39 33.94827 -118.40963 122 ft 19 kts 83°
2026-04-12 02:40 33.94845 -118.40797 123 ft 21 kts 82°
2026-04-12 02:40 33.94863 -118.40611 121 ft 23 kts 82°
2026-04-12 02:40 33.94885 -118.40407 123 ft 25 kts 84°
2026-04-12 02:40 33.94907 -118.40272 121 ft 20 kts 80°
2026-04-12 02:41 33.94910 -118.40168 123 ft 0 kts 83°
2026-04-12 02:41 33.94912 -118.40151 123 ft 4 kts 84°
2026-04-12 02:41 33.94916 -118.40106 123 ft 7 kts 79°
2026-04-12 02:41 33.94941 -118.40067 123 ft 0 kts 20°
2026-04-12 02:43 33.94945 -118.40066 120 ft 2 kts 18°
2026-04-12 02:43 33.94971 -118.40064 121 ft 6 kts 354°
2026-04-12 02:43 33.95024 -118.40090 122 ft 8 kts 310°
2026-04-12 02:44 33.95025 -118.40126 123 ft 5 kts 259°
2026-04-12 02:44 33.95014 -118.40215 123 ft 30 kts 263°
2026-04-12 02:44 33.94966 -118.40687 123 ft 83 kts 263°
2026-04-12 02:44 33.94877 -118.41561 122 ft 125 kts 263°
2026-04-12 02:45 33.94740 -118.42742 278 ft 155 kts 262°
2026-04-12 02:45 33.94595 -118.44070 881 ft 163 kts 264°
2026-04-12 02:45 33.94450 -118.45431 1647 ft 167 kts 262°
2026-04-12 02:45 33.94275 -118.46917 2309 ft 193 kts 261°
2026-04-12 02:46 33.94067 -118.48553 2860 ft 210 kts 261°
2026-04-12 02:46 33.93822 -118.50506 2960 ft 247 kts 263°
2026-04-12 02:46 33.93725 -118.52560 2946 ft 243 kts 268°
2026-04-12 02:46 33.93721 -118.54609 3277 ft 250 kts 270°
2026-04-12 02:47 33.93727 -118.56703 3643 ft 254 kts 268°
2026-04-12 02:47 33.93605 -118.58798 4025 ft 254 kts 264°
2026-04-12 02:47 33.93541 -118.60922 4395 ft 256 kts 278°
2026-04-12 02:47 33.94270 -118.62888 4803 ft 267 kts 306°
2026-04-12 02:48 33.95522 -118.64573 5193 ft 272 kts 313°
2026-04-12 02:48 33.97042 -118.65928 5568 ft 276 kts 333°
2026-04-12 02:48 33.98854 -118.66713 5950 ft 274 kts 343°
2026-04-12 02:48 34.00738 -118.67168 6348 ft 279 kts 348°
2026-04-12 02:49 34.02682 -118.67428 6715 ft 283 kts 356°
2026-04-12 02:49 34.04667 -118.67369 7086 ft 287 kts
2026-04-12 02:49 34.06680 -118.67213 7476 ft 291 kts
2026-04-12 02:49 34.08712 -118.66931 7827 ft 296 kts
2026-04-12 02:50 34.10748 -118.66480 8196 ft 299 kts
2026-04-12 02:50 34.12805 -118.66004 8583 ft 303 kts
2026-04-12 02:50 34.14888 -118.65503 9068 ft 307 kts
2026-04-12 02:50 34.17000 -118.64996 9591 ft 314 kts
2026-04-12 02:51 34.19163 -118.64486 10078 ft 319 kts
2026-04-12 02:51 34.21379 -118.64046 10544 ft 327 kts
2026-04-12 02:51 34.23671 -118.63910 11047 ft 333 kts 354°
2026-04-12 02:51 34.26014 -118.63982 11576 ft 341 kts 352°
2026-04-12 02:52 34.28405 -118.64223 12107 ft 346 kts 345°
2026-04-12 02:52 34.30772 -118.64709 12624 ft 347 kts 343°
2026-04-12 02:52 34.33148 -118.65240 13133 ft 349 kts 343°
2026-04-12 02:52 34.35545 -118.65783 13674 ft 353 kts 342°
2026-04-12 02:53 34.37938 -118.66331 14157 ft 352 kts 342°
2026-04-12 02:53 34.40329 -118.66977 14655 ft 355 kts 339°
2026-04-12 02:53 34.45078 -118.68653 15639 ft 354 kts 332°
2026-04-12 02:54 34.47380 -118.69748 16163 ft 356 kts 331°
2026-04-12 02:54 34.49679 -118.70867 16650 ft 358 kts 330°
2026-04-12 02:54 34.51993 -118.72019 17173 ft 360 kts 330°
2026-04-12 02:54 34.54313 -118.73169 17713 ft 362 kts 330°
2026-04-12 02:55 34.56661 -118.74334 18263 ft 366 kts 330°
2026-04-12 02:55 34.59026 -118.75504 18712 ft 368 kts 330°
2026-04-12 02:55 34.61414 -118.76688 19172 ft 372 kts 330°
2026-04-12 02:55 34.63812 -118.77877 19659 ft 374 kts 329°
2026-04-12 02:56 34.66226 -118.79085 20143 ft 376 kts 329°
2026-04-12 02:56 34.68661 -118.80294 20626 ft 379 kts 329°
2026-04-12 02:56 34.71104 -118.81507 21127 ft 381 kts 329°
2026-04-12 02:56 34.73565 -118.82731 21644 ft 384 kts 329°
2026-04-12 02:57 34.76018 -118.83951 22143 ft 386 kts 329°
2026-04-12 02:57 34.78523 -118.85174 22678 ft 389 kts 329°
2026-04-12 02:57 34.81082 -118.86319 23218 ft 398 kts 334°
2026-04-12 02:57 34.83751 -118.87276 23718 ft 401 kts 335°
2026-04-12 02:58 34.86441 -118.88219 24177 ft 402 kts 335°
2026-04-12 02:58 34.89148 -118.89152 24647 ft 406 kts 335°
2026-04-12 02:58 34.91869 -118.90087 25125 ft 408 kts 335°
2026-04-12 02:58 34.94598 -118.91025 25598 ft 409 kts 335°
2026-04-12 02:59 34.97342 -118.91971 26082 ft 411 kts 335°
2026-04-12 02:59 35.00100 -118.92924 26586 ft 413 kts 335°
2026-04-12 02:59 35.02879 -118.93884 27083 ft 416 kts 335°
2026-04-12 02:59 35.05674 -118.94850 27591 ft 418 kts 335°
2026-04-12 03:00 35.08475 -118.95819 28115 ft 419 kts 334°
2026-04-12 03:00 35.11275 -118.96785 28644 ft 419 kts 334°
2026-04-12 03:00 35.14085 -118.97762 29182 ft 419 kts 334°
2026-04-12 03:00 35.16889 -118.98736 29715 ft 419 kts 334°
2026-04-12 03:01 35.19699 -118.99710 30226 ft 419 kts 334°
2026-04-12 03:01 35.22509 -119.00683 30741 ft 419 kts 334°
2026-04-12 03:01 35.25304 -119.01657 31211 ft 418 kts 334°
2026-04-12 03:01 35.28101 -119.02630 31697 ft 417 kts 334°
2026-04-12 03:02 35.30885 -119.03598 32192 ft 415 kts 334°
2026-04-12 03:02 35.33655 -119.04563 32687 ft 412 kts 333°
2026-04-12 03:02 35.36404 -119.05521 33200 ft 409 kts 333°
2026-04-12 03:02 35.39130 -119.06472 33705 ft 407 kts 333°
2026-04-12 03:03 35.41869 -119.07432 33857 ft 414 kts 333°
2026-04-12 03:03 35.44661 -119.08401 33905 ft 423 kts 335°
2026-04-12 03:03 35.47639 -119.09031 33922 ft 445 kts 345°
2026-04-12 03:03 35.50792 -119.09048 33933 ft 459 kts 355°
2026-04-12 03:04 35.57100 -119.07151 33919 ft 478 kts 15°
2026-04-12 03:04 35.63144 -119.03578 33922 ft 484 kts 20°
2026-04-12 03:05 35.69154 -118.99748 33933 ft 489 kts 21°
2026-04-12 03:05 35.75234 -118.96100 33942 ft 483 kts 15°
2026-04-12 03:06 35.81396 -118.92898 33944 ft 480 kts 16°
2026-04-12 03:06 35.87564 -118.89733 33961 ft 480 kts 16°
2026-04-12 03:07 35.93751 -118.86554 33984 ft 486 kts 16°
2026-04-12 03:07 35.99974 -118.83347 33963 ft 483 kts 16°
2026-04-12 03:08 36.06188 -118.80141 33978 ft 484 kts 16°
2026-04-12 03:08 36.12402 -118.76929 33978 ft 484 kts 16°
2026-04-12 03:09 36.18633 -118.73703 33992 ft 489 kts 17°
2026-04-12 03:09 36.24911 -118.70444 33972 ft 488 kts 17°
2026-04-12 03:10 36.31173 -118.67190 33962 ft 488 kts 17°
2026-04-12 03:10 36.37419 -118.63940 33957 ft 486 kts 18°
2026-04-12 03:11 36.43668 -118.60681 33960 ft 489 kts 18°
2026-04-12 03:11 36.49936 -118.57404 33961 ft 488 kts 18°
2026-04-12 03:12 36.56154 -118.54149 33916 ft 488 kts 18°
2026-04-12 03:12 36.62428 -118.50861 33901 ft 489 kts 18°
2026-04-12 03:13 36.68712 -118.47563 33914 ft 491 kts 19°
2026-04-12 03:13 36.75002 -118.44250 33880 ft 491 kts 18°
2026-04-12 03:14 36.81293 -118.40935 33835 ft 492 kts 19°
2026-04-12 03:14 36.87588 -118.37611 33835 ft 491 kts 19°
2026-04-12 03:15 36.93917 -118.34263 33833 ft 497 kts 19°
2026-04-12 03:15 37.00266 -118.30898 33784 ft 496 kts 19°
2026-04-12 03:16 37.06621 -118.27524 33789 ft 496 kts 19°
2026-04-12 03:16 37.12936 -118.24166 33779 ft 496 kts 19°
2026-04-12 03:17 37.19330 -118.20759 33774 ft 496 kts 19°
2026-04-12 03:17 37.25644 -118.17388 33756 ft 496 kts 19°
2026-04-12 03:18 37.31998 -118.13990 33808 ft 496 kts 19°
2026-04-12 03:18 37.38343 -118.10590 33765 ft 496 kts 19°
2026-04-12 03:19 37.44725 -118.07164 33752 ft 500 kts 19°
2026-04-12 03:19 37.51089 -118.03742 33741 ft 496 kts 19°
2026-04-12 03:20 37.57443 -118.00318 33739 ft 496 kts 19°
2026-04-12 03:20 37.63803 -117.96886 33753 ft 497 kts 19°
2026-04-12 03:21 37.70131 -117.93463 33743 ft 495 kts 19°
2026-04-12 03:21 37.76456 -117.90036 33740 ft 495 kts 20°
2026-04-12 03:22 37.82786 -117.86600 33728 ft 495 kts 19°
2026-04-12 03:22 37.89109 -117.83160 33762 ft 494 kts 20°
2026-04-12 03:23 37.95467 -117.79696 33721 ft 498 kts 20°
2026-04-12 03:23 38.01917 -117.76603 33729 ft 493 kts 11°
2026-04-12 03:24 38.08551 -117.74420 33730 ft 492 kts
2026-04-12 03:24 38.15163 -117.72310 33749 ft 496 kts 10°
2026-04-12 03:25 38.21868 -117.70163 33716 ft 496 kts 10°
2026-04-12 03:25 38.28562 -117.68017 33746 ft 496 kts 10°
2026-04-12 03:26 38.35257 -117.65867 33737 ft 496 kts 10°
2026-04-12 03:26 38.41965 -117.63708 33738 ft 498 kts 10°
2026-04-12 03:27 38.48680 -117.61542 33762 ft 499 kts 10°
2026-04-12 03:27 38.55395 -117.59373 33772 ft 497 kts 10°
2026-04-12 03:28 38.61029 -117.57552 33804 ft 501 kts 11°
2026-04-12 03:28 38.67785 -117.55358 33780 ft 500 kts 11°
2026-04-12 03:29 38.74527 -117.53168 33780 ft 500 kts 11°
2026-04-12 03:29 38.81228 -117.50987 33822 ft 501 kts 11°
2026-04-12 03:30 38.88023 -117.48770 33779 ft 503 kts 11°
2026-04-12 03:30 38.94796 -117.46554 33777 ft 502 kts 11°
2026-04-12 03:31 39.01563 -117.44341 33791 ft 502 kts 11°
2026-04-12 03:31 39.08338 -117.42117 33777 ft 502 kts 11°
2026-04-12 03:32 39.15105 -117.39893 33802 ft 502 kts 11°
2026-04-12 03:32 39.21875 -117.37663 33773 ft 502 kts 11°
2026-04-12 03:33 39.28652 -117.35426 33779 ft 502 kts 11°
2026-04-12 03:33 39.35419 -117.33188 33769 ft 502 kts 11°
2026-04-12 03:34 39.42195 -117.30942 33868 ft 502 kts 11°
2026-04-12 03:34 39.48965 -117.28694 33871 ft 502 kts 11°
2026-04-12 03:35 39.55739 -117.26441 33867 ft 503 kts 11°
2026-04-12 03:35 39.62508 -117.24183 33847 ft 502 kts 11°
2026-04-12 03:36 39.69293 -117.21917 33829 ft 503 kts 11°
2026-04-12 03:36 39.76064 -117.19650 33785 ft 503 kts 11°
2026-04-12 03:37 39.82836 -117.17379 33765 ft 503 kts 11°
2026-04-12 03:37 39.89572 -117.15114 33752 ft 500 kts 11°
2026-04-12 03:38 39.96301 -117.12848 33767 ft 499 kts 11°
2026-04-12 03:38 40.02982 -117.10594 33761 ft 499 kts 11°
2026-04-12 03:39 40.09705 -117.08319 33756 ft 499 kts 11°
2026-04-12 03:39 40.16426 -117.06043 33757 ft 499 kts 12°
2026-04-12 03:40 40.23136 -117.03764 33755 ft 498 kts 12°
2026-04-12 03:40 40.29855 -117.01478 33764 ft 498 kts 12°
2026-04-12 03:41 40.36567 -116.99190 33793 ft 498 kts 12°
2026-04-12 03:41 40.43272 -116.96899 33803 ft 497 kts 12°
2026-04-12 03:42 40.49964 -116.94608 33827 ft 498 kts 12°
2026-04-12 03:42 40.56668 -116.92348 33843 ft 496 kts
2026-04-12 03:43 40.63443 -116.90694 33831 ft 495 kts
2026-04-12 03:43 40.70214 -116.89109 33833 ft 495 kts
2026-04-12 03:44 40.76996 -116.87521 33813 ft 495 kts
2026-04-12 03:44 40.83723 -116.85940 33757 ft 490 kts
2026-04-12 03:45 40.90439 -116.84359 33787 ft 491 kts
2026-04-12 03:45 40.97169 -116.82771 33769 ft 491 kts
2026-04-12 03:46 41.03823 -116.81197 33788 ft 488 kts
2026-04-12 03:46 41.10554 -116.79602 33784 ft 488 kts
2026-04-12 03:47 41.17200 -116.78023 33791 ft 488 kts
2026-04-12 03:47 41.23883 -116.76433 33792 ft 487 kts
2026-04-12 03:48 41.30562 -116.74839 33785 ft 488 kts
2026-04-12 03:48 41.37242 -116.73243 33795 ft 488 kts
2026-04-12 03:49 41.43925 -116.71642 33794 ft 488 kts
2026-04-12 03:49 41.50604 -116.70040 33806 ft 488 kts
2026-04-12 03:50 41.57285 -116.68433 33806 ft 488 kts
2026-04-12 03:50 41.63970 -116.66822 33803 ft 488 kts
2026-04-12 03:51 41.70650 -116.65209 33805 ft 488 kts
2026-04-12 03:51 41.77327 -116.63593 33800 ft 488 kts
2026-04-12 03:52 41.84015 -116.61970 33791 ft 488 kts
2026-04-12 03:52 41.90682 -116.60351 33796 ft 486 kts
2026-04-12 03:53 41.97339 -116.58729 33803 ft 487 kts
2026-04-12 03:53 42.04006 -116.57102 33795 ft 488 kts
2026-04-12 03:54 42.10683 -116.55468 33808 ft 488 kts
2026-04-12 03:54 42.17358 -116.53832 33767 ft 487 kts
2026-04-12 03:55 42.23976 -116.52207 33799 ft 483 kts
2026-04-12 03:55 42.30597 -116.50576 33817 ft 483 kts
2026-04-12 03:56 42.37212 -116.48945 33799 ft 483 kts
2026-04-12 03:56 42.43821 -116.47312 33819 ft 483 kts
2026-04-12 03:57 42.50419 -116.45673 33787 ft 480 kts
2026-04-12 03:57 42.56980 -116.44047 33805 ft 480 kts
2026-04-12 03:58 42.63556 -116.42412 33817 ft 480 kts
2026-04-12 03:58 42.70125 -116.40772 33791 ft 480 kts
2026-04-12 03:59 42.76645 -116.39142 33795 ft 480 kts
2026-04-12 03:59 42.83232 -116.37493 33796 ft 475 kts
2026-04-12 04:00 42.89692 -116.35872 33788 ft 475 kts
2026-04-12 04:00 42.96202 -116.34234 33796 ft 476 kts
2026-04-12 04:01 43.02713 -116.32594 33786 ft 475 kts
2026-04-12 04:01 43.09211 -116.30952 33781 ft 475 kts
2026-04-12 04:02 43.18943 -116.28487 33789 ft 474 kts
2026-04-12 04:03 43.25426 -116.26842 33799 ft 474 kts
2026-04-12 04:03 43.31913 -116.25190 33782 ft 474 kts
2026-04-12 04:04 43.38398 -116.23536 33817 ft 474 kts
2026-04-12 04:04 43.44883 -116.21878 33809 ft 474 kts
2026-04-12 04:05 43.51365 -116.20213 33827 ft 474 kts
2026-04-12 04:05 43.57729 -116.17693 33825 ft 477 kts 20°
2026-04-12 04:06 43.63862 -116.14152 33796 ft 478 kts 22°
2026-04-12 04:06 43.69972 -116.10536 33798 ft 478 kts 22°
2026-04-12 04:07 43.76078 -116.06910 33800 ft 478 kts 22°
2026-04-12 04:07 43.82187 -116.03277 33815 ft 478 kts 22°
2026-04-12 04:08 43.88292 -115.99640 33799 ft 478 kts 22°
2026-04-12 04:08 43.94397 -115.95995 33823 ft 478 kts 22°
2026-04-12 04:09 44.00494 -115.92343 33802 ft 475 kts 22°
2026-04-12 04:09 44.06574 -115.88698 33820 ft 476 kts 22°
2026-04-12 04:10 44.12653 -115.85041 33806 ft 476 kts 22°
2026-04-12 04:10 44.18729 -115.81384 33835 ft 476 kts 22°
2026-04-12 04:11 44.24804 -115.77711 33792 ft 474 kts 22°
2026-04-12 04:11 44.30857 -115.74049 33820 ft 475 kts 22°
2026-04-12 04:12 44.36914 -115.70374 33806 ft 475 kts 22°
2026-04-12 04:12 44.42970 -115.66693 33832 ft 475 kts 22°
2026-04-12 04:13 44.49024 -115.63001 33810 ft 474 kts 22°
2026-04-12 04:13 44.54037 -115.59940 33826 ft 472 kts 22°
2026-04-12 04:14 44.60067 -115.56251 33816 ft 472 kts 22°
2026-04-12 04:14 44.66088 -115.52559 33845 ft 472 kts 22°
2026-04-12 04:15 44.72107 -115.48858 33821 ft 472 kts 22°
2026-04-12 04:15 44.78125 -115.45148 33844 ft 472 kts 22°
2026-04-12 04:16 44.84143 -115.41433 33826 ft 472 kts 22°
2026-04-12 04:16 44.90151 -115.37715 33843 ft 472 kts 22°
2026-04-12 04:16 44.93154 -115.35854 33581 ft 471 kts 22°
2026-04-12 04:17 44.96152 -115.33991 33298 ft 469 kts 22°
2026-04-12 04:17 44.99135 -115.32138 33029 ft 468 kts 22°
2026-04-12 04:17 45.02118 -115.30283 32766 ft 469 kts 22°
2026-04-12 04:17 45.05102 -115.28420 32495 ft 468 kts 22°
2026-04-12 04:18 45.08037 -115.26592 32249 ft 467 kts 21°
2026-04-12 04:18 45.11007 -115.24740 31987 ft 467 kts 21°
2026-04-12 04:18 45.13979 -115.22882 31734 ft 467 kts 22°
2026-04-12 04:18 45.16948 -115.21024 31493 ft 468 kts 22°
2026-04-12 04:19 45.19954 -115.19141 31246 ft 466 kts 22°
2026-04-12 04:19 45.22881 -115.17304 31012 ft 465 kts 22°
2026-04-12 04:19 45.25846 -115.15443 30759 ft 465 kts 22°
2026-04-12 04:19 45.28798 -115.13588 30519 ft 465 kts 22°
2026-04-12 04:20 45.31760 -115.11723 30262 ft 464 kts 22°
2026-04-12 04:20 45.34702 -115.09870 30019 ft 463 kts 22°
2026-04-12 04:20 45.37646 -115.08013 29758 ft 463 kts 22°
2026-04-12 04:20 45.40600 -115.06146 29496 ft 464 kts 22°
2026-04-12 04:21 45.43540 -115.04288 29224 ft 461 kts 21°
2026-04-12 04:21 45.46471 -115.02434 28944 ft 459 kts 21°
2026-04-12 04:21 45.49378 -115.00593 28673 ft 457 kts 21°
2026-04-12 04:21 45.52279 -114.98753 28400 ft 455 kts 22°
2026-04-12 04:22 45.55165 -114.96919 28125 ft 453 kts 22°
2026-04-12 04:22 45.58032 -114.95096 27857 ft 450 kts 22°
2026-04-12 04:22 45.60881 -114.93280 27593 ft 447 kts 21°
2026-04-12 04:22 45.63719 -114.91475 27332 ft 445 kts 21°
2026-04-12 04:23 45.66540 -114.89674 27076 ft 443 kts 21°
2026-04-12 04:23 45.69348 -114.87883 26823 ft 441 kts 21°
2026-04-12 04:23 45.72141 -114.86096 26562 ft 439 kts 21°
2026-04-12 04:23 45.74926 -114.84313 26301 ft 437 kts 21°
2026-04-12 04:24 45.77699 -114.82537 26009 ft 436 kts 21°
2026-04-12 04:24 45.80464 -114.80763 25631 ft 433 kts 21°
2026-04-12 04:24 45.83202 -114.79006 25266 ft 430 kts 22°
2026-04-12 04:24 45.85936 -114.77247 24901 ft 429 kts 21°
2026-04-12 04:25 45.88629 -114.75512 24544 ft 421 kts 21°
2026-04-12 04:25 45.91286 -114.73804 24205 ft 419 kts 22°
2026-04-12 04:25 45.93949 -114.72087 23861 ft 418 kts 22°
2026-04-12 04:25 45.96597 -114.70377 23542 ft 415 kts 22°
2026-04-12 04:26 45.99227 -114.68677 23305 ft 414 kts 22°
2026-04-12 04:26 46.01848 -114.66981 23032 ft 413 kts 22°
2026-04-12 04:26 46.04457 -114.65292 22755 ft 411 kts 22°
2026-04-12 04:26 46.07058 -114.63606 22492 ft 409 kts 22°
2026-04-12 04:27 46.09648 -114.61925 22218 ft 407 kts 22°
2026-04-12 04:27 46.12223 -114.60252 21947 ft 405 kts 22°
2026-04-12 04:27 46.14764 -114.58602 21698 ft 408 kts 23°
2026-04-12 04:27 46.17390 -114.56893 21440 ft 408 kts 24°
2026-04-12 04:28 46.19967 -114.55210 21183 ft 406 kts 23°
2026-04-12 04:28 46.22534 -114.53536 20926 ft 404 kts 23°
2026-04-12 04:28 46.25094 -114.51864 20676 ft 402 kts 23°
2026-04-12 04:28 46.27640 -114.50200 20426 ft 401 kts 23°
2026-04-12 04:29 46.30178 -114.48539 20171 ft 399 kts 23°
2026-04-12 04:29 46.32702 -114.46887 19922 ft 398 kts 23°
2026-04-12 04:29 46.35215 -114.45242 19679 ft 396 kts 23°
2026-04-12 04:29 46.37684 -114.43615 19419 ft 394 kts 23°
2026-04-12 04:30 46.40179 -114.41981 19176 ft 393 kts 23°
2026-04-12 04:30 46.42662 -114.40347 18928 ft 392 kts 23°
2026-04-12 04:30 46.45141 -114.38715 18714 ft 391 kts 23°
2026-04-12 04:30 46.47605 -114.37092 18448 ft 389 kts 23°
2026-04-12 04:31 46.50069 -114.35465 18205 ft 387 kts 23°
2026-04-12 04:31 46.52516 -114.33850 17969 ft 386 kts 23°
2026-04-12 04:31 46.54954 -114.32239 17687 ft 384 kts 23°
2026-04-12 04:31 46.57374 -114.30639 17425 ft 382 kts 23°
2026-04-12 04:32 46.59748 -114.29065 17133 ft 363 kts 23°
2026-04-12 04:32 46.61975 -114.27588 16840 ft 339 kts 23°
2026-04-12 04:32 46.64061 -114.26204 16538 ft 320 kts 22°
2026-04-12 04:32 46.66035 -114.24895 16251 ft 305 kts 22°
2026-04-12 04:33 46.67924 -114.23640 15934 ft 294 kts 22°
2026-04-12 04:33 46.69764 -114.22419 15512 ft 288 kts 22°
2026-04-12 04:33 46.71561 -114.21221 15105 ft 281 kts 22°
2026-04-12 04:33 46.73317 -114.20051 14714 ft 275 kts 22°
2026-04-12 04:34 46.75044 -114.18901 14329 ft 271 kts 22°
2026-04-12 04:34 46.76756 -114.17761 13972 ft 270 kts 22°
2026-04-12 04:34 46.78463 -114.16621 13627 ft 269 kts 22°
2026-04-12 04:34 46.80158 -114.15488 13242 ft 269 kts 22°
2026-04-12 04:35 46.81869 -114.14345 12851 ft 271 kts 22°
2026-04-12 04:35 46.83579 -114.13204 12475 ft 271 kts 22°
2026-04-12 04:35 46.85298 -114.12052 12091 ft 272 kts 22°
2026-04-12 04:35 46.87019 -114.10897 11716 ft 273 kts 22°
2026-04-12 04:36 46.88782 -114.09903 11341 ft 269 kts
2026-04-12 04:36 46.90632 -114.09847 10979 ft 265 kts 354°
2026-04-12 04:36 46.92453 -114.10050 10623 ft 264 kts 352°
2026-04-12 04:36 46.94297 -114.10313 10273 ft 264 kts 351°
2026-04-12 04:37 46.96124 -114.10589 9922 ft 264 kts 351°
2026-04-12 04:37 46.97956 -114.10809 9562 ft 265 kts 355°
2026-04-12 04:37 46.99791 -114.10868 9252 ft 262 kts 356°
2026-04-12 04:37 47.01601 -114.10893 8987 ft 258 kts 356°
2026-04-12 04:38 47.03380 -114.10913 8723 ft 254 kts 356°
2026-04-12 04:38 47.05137 -114.10931 8491 ft 252 kts 357°
2026-04-12 04:38 47.06888 -114.10949 8274 ft 250 kts 357°
2026-04-12 04:38 47.08616 -114.10966 8115 ft 246 kts 356°
2026-04-12 04:39 47.10292 -114.10985 8173 ft 232 kts 356°
2026-04-12 04:39 47.11818 -114.11000 8313 ft 203 kts 356°
2026-04-12 04:39 47.13099 -114.11010 8489 ft 170 kts 355°
2026-04-12 04:39 47.14314 -114.11033 8522 ft 184 kts 355°
2026-04-12 04:40 47.15647 -114.11067 8732 ft 191 kts 356°
2026-04-12 04:40 47.16964 -114.11127 8883 ft 211 kts 353°
2026-04-12 04:40 47.18511 -114.11243 8983 ft 217 kts 356°
2026-04-12 04:40 47.20031 -114.11251 9013 ft 220 kts 357°
2026-04-12 04:41 47.21565 -114.11235 9011 ft 221 kts 358°
2026-04-12 04:41 47.23085 -114.11213 9142 ft 220 kts 357°
2026-04-12 04:41 47.24626 -114.11196 9326 ft 221 kts 357°
2026-04-12 04:41 47.26173 -114.11183 9507 ft 223 kts 357°
2026-04-12 04:42 47.27723 -114.11168 9663 ft 223 kts 357°
2026-04-12 04:42 47.29275 -114.11156 9812 ft 223 kts 357°
2026-04-12 04:42 47.30793 -114.11415 9969 ft 218 kts 332°
2026-04-12 04:43 47.32114 -114.14933 10364 ft 210 kts 262°
2026-04-12 04:43 47.31888 -114.17070 10574 ft 210 kts 261°
2026-04-12 04:43 47.31663 -114.19192 10780 ft 210 kts 260°
2026-04-12 04:43 47.31374 -114.21302 10996 ft 211 kts 256°
2026-04-12 04:44 47.31011 -114.23405 11201 ft 212 kts 255°
2026-04-12 04:44 47.30627 -114.25497 11379 ft 212 kts 252°
2026-04-12 04:44 47.30147 -114.27540 11607 ft 210 kts 252°
2026-04-12 04:44 47.29697 -114.29567 11809 ft 200 kts 250°
2026-04-12 04:45 47.29231 -114.31339 11890 ft 175 kts 247°
2026-04-12 04:45 47.28771 -114.32963 11936 ft 171 kts 246°
2026-04-12 04:45 47.28290 -114.34582 11955 ft 174 kts 243°
2026-04-12 04:45 47.27734 -114.36142 11957 ft 173 kts 243°
2026-04-12 04:46 47.27165 -114.37740 11978 ft 175 kts 241°
2026-04-12 04:46 47.26554 -114.39287 11983 ft 175 kts 239°
2026-04-12 04:46 47.25921 -114.40840 11745 ft 176 kts 239°
2026-04-12 04:46 47.25296 -114.42352 11473 ft 173 kts 239°
2026-04-12 04:47 47.24618 -114.43802 11197 ft 172 kts 234°
2026-04-12 04:47 47.23875 -114.45187 10916 ft 172 kts 232°
2026-04-12 04:47 47.23122 -114.46552 10653 ft 172 kts 232°
2026-04-12 04:47 47.22371 -114.47922 10399 ft 172 kts 232°
2026-04-12 04:48 47.21584 -114.49236 10165 ft 171 kts 228°
2026-04-12 04:48 47.20777 -114.50527 9944 ft 171 kts 228°
2026-04-12 04:48 47.19947 -114.51773 9720 ft 170 kts 226°
2026-04-12 04:48 47.19091 -114.52979 9478 ft 170 kts 225°
2026-04-12 04:49 47.18135 -114.53985 9223 ft 173 kts 198°
2026-04-12 04:49 47.16947 -114.53763 8966 ft 181 kts 152°
2026-04-12 04:49 47.16093 -114.52379 8741 ft 186 kts 127°
2026-04-12 04:49 47.15385 -114.50782 8509 ft 186 kts 125°
2026-04-12 04:50 47.14688 -114.49202 8384 ft 184 kts 126°
2026-04-12 04:50 47.13942 -114.47673 8244 ft 184 kts 130°
2026-04-12 04:50 47.13135 -114.46226 8131 ft 182 kts 133°
2026-04-12 04:50 47.12318 -114.44811 8061 ft 181 kts 133°
2026-04-12 04:51 47.11500 -114.43403 8021 ft 181 kts 133°
2026-04-12 04:51 47.10679 -114.41995 7991 ft 181 kts 134°
2026-04-12 04:51 47.09857 -114.40623 8036 ft 181 kts 132°
2026-04-12 04:51 47.09049 -114.39169 8073 ft 182 kts 131°
2026-04-12 04:52 47.08234 -114.37727 8087 ft 184 kts 133°
2026-04-12 04:52 47.07405 -114.36291 8016 ft 183 kts 133°
2026-04-12 04:52 47.06578 -114.34875 7915 ft 183 kts 133°
2026-04-12 04:52 47.05751 -114.33458 7744 ft 183 kts 133°
2026-04-12 04:53 47.04927 -114.32041 7535 ft 181 kts 133°
2026-04-12 04:53 47.04113 -114.30637 7338 ft 181 kts 133°
2026-04-12 04:53 47.02492 -114.27838 6950 ft 179 kts 133°
2026-04-12 04:54 47.01688 -114.26458 6748 ft 177 kts 133°
2026-04-12 04:54 47.00903 -114.25110 6515 ft 166 kts 133°
2026-04-12 04:54 47.00199 -114.23890 6243 ft 150 kts 133°
2026-04-12 04:54 46.99537 -114.22746 5927 ft 143 kts 133°
2026-04-12 04:55 46.98901 -114.21658 5576 ft 139 kts 133°
2026-04-12 04:55 46.98272 -114.20591 5257 ft 139 kts 132°
2026-04-12 04:55 46.97631 -114.19507 4967 ft 143 kts 130°
2026-04-12 04:55 46.96986 -114.18394 4697 ft 143 kts 129°
2026-04-12 04:56 46.96348 -114.17277 4464 ft 140 kts 128°
2026-04-12 04:56 46.95716 -114.16182 4270 ft 141 kts 129°
2026-04-12 04:56 46.95079 -114.15092 4105 ft 141 kts 130°
2026-04-12 04:56 46.94447 -114.14015 3881 ft 139 kts 130°
2026-04-12 04:57 46.93833 -114.12972 3704 ft 135 kts 130°
2026-04-12 04:57 46.93220 -114.11916 3483 ft 133 kts 129°
2026-04-12 04:57 46.92631 -114.10906 3285 ft 131 kts 129°
2026-04-12 04:57 46.92068 -114.09935 3201 ft 113 kts 129°
2026-04-12 04:58 46.91631 -114.09194 3200 ft 80 kts 133°
2026-04-12 04:58 46.91326 -114.08674 3198 ft 58 kts 130°
2026-04-12 04:58 46.91122 -114.08329 3200 ft 33 kts 130°
2026-04-12 04:58 46.90978 -114.08078 3204 ft 32 kts 130°
2026-04-12 04:59 46.90913 -114.07901 3204 ft 13 kts 65°
2026-04-12 04:59 46.90956 -114.07832 3202 ft 0 kts 42°
2026-04-12 04:59 46.90966 -114.07819 3201 ft 5 kts 41°
2026-04-12 05:00 46.91015 -114.07798 3204 ft 10 kts 348°
2026-04-12 05:00 46.91076 -114.07880 3204 ft 16 kts 310°
2026-04-12 05:00 46.91131 -114.07973 3204 ft 20 kts 311°
2026-04-12 05:00 46.91227 -114.08136 3203 ft 22 kts 311°
2026-04-12 05:01 46.91330 -114.08313 3203 ft 24 kts 311°
2026-04-12 05:01 46.91436 -114.08506 3200 ft 20 kts 310°
2026-04-12 05:01 46.91522 -114.08571 3203 ft 14 kts 358°
2026-04-12 05:01 46.91618 -114.08575 3204 ft 14 kts 358°
2026-04-12 05:02 46.91718 -114.08573 3203 ft 14 kts
2026-04-12 05:02 46.91795 -114.08564 3203 ft 10 kts 327°
2026-04-12 05:02 46.91848 -114.08642 3198 ft 12 kts 312°
2026-04-12 05:02 46.91918 -114.08686 3202 ft 12 kts 22°
2026-04-12 05:03 46.91975 -114.08644 3202 ft 7 kts 350°
2026-04-12 05:03 46.92015 -114.08688 3202 ft 8 kts 305°
2026-04-12 05:03 46.92010 -114.08759 3201 ft 8 kts 225°
2026-04-12 05:03 46.91962 -114.08805 3201 ft 9 kts 187°
2026-04-12 05:04 46.91938 -114.08786 3200 ft 2 kts 104°
2026-04-12 05:04 46.91947 -114.08753 3202 ft 7 kts 51°
2026-04-12 05:04 46.91995 -114.08689 3202 ft 7 kts 60°
2026-04-12 05:04 46.91992 -114.08657 3202 ft 3 kts 114°
2026-04-12 05:05 46.91980 -114.08638 3202 ft 3 kts 152°
2026-04-12 05:05 46.91936 -114.08670 3201 ft 13 kts 219°
2026-04-12 05:05 46.91877 -114.08679 3202 ft 9 kts 150°
2026-04-12 05:05 46.91831 -114.08613 3203 ft 10 kts 130°
2026-04-12 05:06 46.91781 -114.08529 3202 ft 12 kts 131°
2026-04-12 05:06 46.91769 -114.08499 3200 ft 1 kts 94°
2026-04-12 05:06 46.91774 -114.08485 3203 ft 3 kts 57°
2026-04-12 05:06 46.91796 -114.08447 3203 ft 6 kts 47°
2026-04-12 05:07 46.91809 -114.08425 3202 ft 0 kts 52°
2026-04-12 05:07 46.91811 -114.08421 3203 ft 0 kts 53°
2026-04-12 05:08 46.91811 -114.08422 3203 ft 0 kts 53°